timestamp,wind_dir_avg,wind_spd_avg,wind_spd_max_dir,wind_spd_gust,battery_voltage,lat,long
2021-10-25 00:04:00+00:00,253.0,16.31,258.0,18.59,12.65,47.59359,-54.27349
2021-10-25 00:14:01+00:00,251.0,12.94,258.0,17.93,12.57,47.59359,-54.27349
2021-10-25 00:24:01+00:00,252.0,16.92,256.0,18.98,12.57,47.59359,-54.27349
2021-10-25 00:34:01+00:00,248.0,15.83,255.0,18.98,12.57,47.59359,-54.27349
2021-10-25 00:44:01+00:00,253.0,14.19,264.0,18.82,12.57,47.59359,-54.27349
2021-10-25 00:54:01+00:00,254.0,14.27,267.0,18.74,12.57,47.59359,-54.27349
2021-10-25 01:04:01+00:00,250.0,13.22,259.0,17.71,12.57,47.59359,-54.27349
2021-10-25 01:14:01+00:00,250.0,11.73,246.0,14.88,12.57,47.59359,-54.27349
2021-10-25 01:24:01+00:00,246.0,13.23,241.0,17.54,12.57,47.59359,-54.27349
2021-10-25 01:34:01+00:00,247.0,15.0,253.0,17.67,12.57,47.59359,-54.27349
2021-10-25 01:44:01+00:00,242.0,14.43,240.0,17.03,12.57,47.59359,-54.27349
2021-10-25 01:54:01+00:00,248.0,13.04,251.0,16.16,12.57,47.59359,-54.27349
2021-10-25 02:04:01+00:00,243.0,13.41,240.0,16.36,12.57,47.59359,-54.27349
2021-10-25 02:14:01+00:00,233.0,13.71,231.0,15.65,12.57,47.59359,-54.27349
2021-10-25 02:24:01+00:00,243.0,11.88,236.0,13.74,12.57,47.59359,-54.27349
2021-10-25 02:34:01+00:00,243.0,13.05,249.0,18.02,12.57,47.59359,-54.27349
2021-10-25 02:44:01+00:00,236.0,13.88,234.0,15.37,12.57,47.59359,-54.27349
2021-10-25 02:54:01+00:00,240.0,13.94,246.0,18.12,12.57,47.59359,-54.27349
2021-10-25 03:04:01+00:00,247.0,15.47,245.0,17.99,12.57,47.59359,-54.27349
2021-10-25 03:14:01+00:00,246.0,14.23,257.0,19.2,12.57,47.59359,-54.27349
2021-10-25 03:24:01+00:00,243.0,13.5,240.0,16.18,12.57,47.59359,-54.27349
2021-10-25 03:34:01+00:00,249.0,13.72,248.0,15.77,12.57,47.59359,-54.27349
2021-10-25 03:44:01+00:00,249.0,14.81,249.0,17.66,12.57,47.59359,-54.27349
2021-10-25 03:54:01+00:00,247.0,12.63,244.0,14.13,12.57,47.59359,-54.27349
2021-10-25 04:04:01+00:00,249.0,14.59,248.0,15.99,12.57,47.59359,-54.27349
2021-10-25 04:14:01+00:00,245.0,14.7,251.0,17.4,12.57,47.59359,-54.27349
2021-10-25 04:24:01+00:00,250.0,15.14,250.0,17.91,12.57,47.59359,-54.27349
2021-10-25 04:34:01+00:00,252.0,17.2,256.0,24.91,12.57,47.59359,-54.27349
2021-10-25 04:44:01+00:00,249.0,16.88,244.0,20.03,12.57,47.59359,-54.27349
2021-10-25 04:54:01+00:00,252.0,14.32,254.0,17.19,12.57,47.59359,-54.27349
2021-10-25 05:04:01+00:00,261.0,15.82,254.0,19.32,12.57,47.59359,-54.27349
2021-10-25 05:14:00+00:00,281.0,14.59,281.0,18.25,12.49,47.59359,-54.27349
2021-10-25 05:24:00+00:00,278.0,17.66,285.0,22.55,12.49,47.59359,-54.27349
2021-10-25 05:34:00+00:00,288.0,13.58,290.0,15.23,12.49,47.59359,-54.27349
2021-10-25 05:44:00+00:00,279.0,14.14,275.0,17.56,12.49,47.59359,-54.27349
2021-10-25 05:54:00+00:00,274.0,12.5,280.0,14.99,12.49,47.59359,-54.27349
2021-10-25 06:04:00+00:00,274.0,13.88,275.0,16.27,12.49,47.59359,-54.27349
2021-10-25 06:14:00+00:00,276.0,12.48,275.0,14.7,12.49,47.59359,-54.27349
2021-10-25 06:24:00+00:00,279.0,12.61,283.0,14.22,12.49,47.59359,-54.27349
2021-10-25 06:34:00+00:00,289.0,12.25,288.0,15.03,12.49,47.59359,-54.27349
2021-10-25 06:44:00+00:00,289.0,13.66,289.0,16.58,12.49,47.59359,-54.27349
2021-10-25 06:54:00+00:00,296.0,10.87,295.0,14.28,12.49,47.59359,-54.27349
2021-10-25 07:04:00+00:00,302.0,9.01,299.0,10.32,12.49,47.59359,-54.27349
2021-10-25 07:14:00+00:00,295.0,13.17,298.0,16.06,12.49,47.59359,-54.27349
2021-10-25 07:24:00+00:00,298.0,15.25,301.0,17.5,12.49,47.59359,-54.27349
2021-10-25 07:34:00+00:00,305.0,14.0,302.0,16.96,12.49,47.59359,-54.27349
2021-10-25 07:44:00+00:00,313.0,11.92,297.0,16.49,12.49,47.59359,-54.27349
2021-10-25 07:54:00+00:00,312.0,8.13,303.0,9.35,12.49,47.59359,-54.27349
2021-10-25 08:04:00+00:00,315.0,10.52,303.0,14.57,12.49,47.59359,-54.27349
2021-10-25 08:14:01+00:00,309.0,11.89,307.0,16.7,12.41,47.59359,-54.27349
2021-10-25 08:24:01+00:00,316.0,10.67,293.0,14.11,12.41,47.59359,-54.27349
2021-10-25 08:34:01+00:00,317.0,11.9,303.0,16.64,12.41,47.59359,-54.27349
2021-10-25 08:44:01+00:00,314.0,16.35,315.0,19.32,12.41,47.59359,-54.27349
2021-10-25 08:54:01+00:00,316.0,13.54,314.0,18.73,12.41,47.59359,-54.27349
2021-10-25 09:04:01+00:00,326.0,11.54,327.0,13.4,12.41,47.59359,-54.27349
2021-10-25 09:14:01+00:00,325.0,12.22,308.0,13.99,12.41,47.59359,-54.27349
2021-10-25 09:24:01+00:00,332.0,12.09,334.0,14.33,12.41,47.59359,-54.27349
2021-10-25 09:34:01+00:00,334.0,11.93,336.0,13.42,12.41,47.59359,-54.27349
2021-10-25 09:44:01+00:00,336.0,13.95,336.0,15.81,12.41,47.59359,-54.27349
2021-10-25 09:54:01+00:00,337.0,13.92,334.0,15.75,12.41,47.59359,-54.27349
2021-10-25 10:04:01+00:00,334.0,14.45,323.0,18.08,12.41,47.59359,-54.27349
2021-10-25 10:14:01+00:00,324.0,13.39,314.0,18.53,12.41,47.59359,-54.27349
2021-10-25 10:24:01+00:00,331.0,12.6,331.0,14.36,12.41,47.59359,-54.27349
2021-10-25 10:34:01+00:00,335.0,13.63,336.0,15.24,12.41,47.59359,-54.27349
2021-10-25 10:44:01+00:00,332.0,12.52,338.0,15.31,12.41,47.59359,-54.27349
2021-10-25 10:54:01+00:00,336.0,13.65,334.0,15.61,12.41,47.59359,-54.27349
2021-10-25 11:04:01+00:00,338.0,12.93,335.0,15.52,12.41,47.59359,-54.27349
2021-10-25 11:14:01+00:00,338.0,13.21,344.0,14.9,12.41,47.59359,-54.27349
2021-10-25 11:24:01+00:00,337.0,13.59,338.0,14.87,12.41,47.59359,-54.27349
2021-10-25 11:34:01+00:00,337.0,12.4,336.0,14.43,12.41,47.59359,-54.27349
2021-10-25 11:44:01+00:00,337.0,12.71,341.0,14.57,12.41,47.59359,-54.27349
2021-10-25 11:54:01+00:00,337.0,14.71,336.0,18.01,12.41,47.59359,-54.27349
2021-10-25 12:04:01+00:00,348.0,16.7,344.0,19.64,12.41,47.59359,-54.27349
2021-10-25 12:14:01+00:00,352.0,15.08,351.0,17.15,13.21,47.59359,-54.27349
2021-10-25 12:24:01+00:00,344.0,14.16,359.0,17.13,13.21,47.59359,-54.27349
2021-10-25 12:34:01+00:00,339.0,13.92,343.0,16.73,13.21,47.59359,-54.27349
2021-10-25 12:44:01+00:00,340.0,15.65,339.0,20.09,13.21,47.59359,-54.27349
2021-10-25 12:54:01+00:00,335.0,13.0,338.0,15.2,13.21,47.59359,-54.27349
2021-10-25 13:04:01+00:00,339.0,14.41,337.0,16.46,13.21,47.59359,-54.27349
2021-10-25 13:14:01+00:00,346.0,15.76,345.0,17.9,13.53,47.59359,-54.27349
2021-10-25 13:24:01+00:00,350.0,15.59,0.0,19.21,13.53,47.59359,-54.27349
2021-10-25 13:34:01+00:00,341.0,13.91,344.0,16.33,13.53,47.59359,-54.27349
2021-10-25 13:44:01+00:00,357.0,14.46,4.0,16.89,13.53,47.59359,-54.27349
2021-10-25 13:54:01+00:00,355.0,13.82,343.0,16.3,13.53,47.59359,-54.27349
2021-10-25 14:04:01+00:00,356.0,11.45,358.0,15.69,13.53,47.59359,-54.27349
2021-10-25 14:14:01+00:00,352.0,13.68,2.0,16.24,13.84,47.59359,-54.27349
2021-10-25 14:24:01+00:00,341.0,12.61,337.0,15.38,13.84,47.59359,-54.27349
2021-10-25 14:34:01+00:00,2.0,14.58,0.0,17.35,13.84,47.59359,-54.27349
2021-10-25 14:44:01+00:00,358.0,13.58,356.0,16.09,13.84,47.59359,-54.27349
2021-10-25 14:54:01+00:00,353.0,11.71,5.0,14.46,13.84,47.59359,-54.27349
2021-10-25 15:04:01+00:00,335.0,10.0,340.0,16.37,13.84,47.59359,-54.27349
2021-10-25 15:14:01+00:00,1.0,9.45,1.0,11.17,13.92,47.59359,-54.27349
2021-10-25 15:24:01+00:00,339.0,12.07,332.0,14.43,13.92,47.59359,-54.27349
2021-10-25 15:34:01+00:00,331.0,10.53,328.0,12.29,13.92,47.59359,-54.27349
2021-10-25 15:44:01+00:00,325.0,9.54,325.0,10.85,13.92,47.59359,-54.27349
2021-10-25 15:54:01+00:00,334.0,9.04,329.0,10.64,13.92,47.59359,-54.27349
2021-10-25 16:04:01+00:00,345.0,9.73,332.0,12.24,13.92,47.59359,-54.27349
2021-10-25 16:14:01+00:00,321.0,8.36,324.0,9.92,13.92,47.59359,-54.27349
2021-10-25 16:24:01+00:00,338.0,9.85,329.0,11.84,13.92,47.59359,-54.27349
2021-10-25 16:34:01+00:00,329.0,9.92,325.0,11.23,13.92,47.59359,-54.27349
2021-10-25 16:44:01+00:00,2.0,10.25,6.0,11.28,13.92,47.59359,-54.27349
2021-10-25 16:54:01+00:00,320.0,8.21,318.0,9.32,13.92,47.59359,-54.27349
2021-10-25 17:04:01+00:00,331.0,10.33,339.0,11.47,13.92,47.59359,-54.27349
2021-10-25 17:14:01+00:00,343.0,10.18,358.0,11.63,13.76,47.59359,-54.27349
2021-10-25 17:24:01+00:00,2.0,7.76,0.0,9.07,13.76,47.59359,-54.27349
2021-10-25 17:34:01+00:00,346.0,9.66,335.0,11.96,13.76,47.59359,-54.27349
2021-10-25 17:44:01+00:00,358.0,8.14,7.0,8.88,13.76,47.59359,-54.27349
2021-10-25 17:54:01+00:00,5.0,10.77,2.0,13.02,13.76,47.59359,-54.27349
2021-10-25 18:04:01+00:00,358.0,8.62,3.0,9.64,13.76,47.59359,-54.27349
2021-10-25 18:14:01+00:00,2.0,6.31,6.0,7.59,14.16,47.59359,-54.27349
2021-10-25 18:24:01+00:00,356.0,7.82,325.0,9.38,14.16,47.59359,-54.27349
2021-10-25 18:34:01+00:00,6.0,8.45,6.0,10.27,14.16,47.59359,-54.27349
2021-10-25 18:44:01+00:00,13.0,8.35,17.0,9.7,14.16,47.59359,-54.27349
2021-10-25 18:54:01+00:00,17.0,7.72,20.0,9.19,14.16,47.59359,-54.27349
2021-10-25 19:04:01+00:00,13.0,10.65,12.0,12.12,14.16,47.59359,-54.27349
2021-10-25 19:14:01+00:00,7.0,8.09,0.0,9.24,13.6,47.59359,-54.27349
2021-10-25 19:24:01+00:00,5.0,9.37,3.0,11.05,13.6,47.59359,-54.27349
2021-10-25 19:34:01+00:00,7.0,5.84,2.0,6.7,13.6,47.59359,-54.27349
2021-10-25 19:44:01+00:00,318.0,8.07,318.0,8.92,13.6,47.59359,-54.27349
2021-10-25 19:54:01+00:00,356.0,6.15,0.0,7.8,13.6,47.59359,-54.27349
2021-10-25 20:04:01+00:00,5.0,6.87,5.0,8.47,13.6,47.59359,-54.27349
2021-10-25 20:14:00+00:00,331.0,5.99,310.0,7.76,13.29,47.59359,-54.27349
2021-10-25 20:24:00+00:00,23.0,5.41,44.0,6.97,13.29,47.59359,-54.27349
2021-10-25 20:34:00+00:00,312.0,7.27,313.0,8.82,13.29,47.59359,-54.27349
2021-10-25 20:44:00+00:00,305.0,6.97,308.0,8.17,13.29,47.59359,-54.27349
2021-10-25 20:54:00+00:00,312.0,7.19,313.0,8.59,13.29,47.59359,-54.27349
2021-10-25 21:04:00+00:00,306.0,7.27,311.0,8.22,13.29,47.59359,-54.27349
2021-10-25 21:14:01+00:00,302.0,6.67,300.0,7.46,12.73,47.59359,-54.27349
2021-10-25 21:24:01+00:00,5.0,5.32,2.0,6.55,12.73,47.59359,-54.27349
2021-10-25 21:34:01+00:00,336.0,6.27,323.0,7.97,12.73,47.59359,-54.27349
2021-10-25 21:44:01+00:00,2.0,6.02,4.0,7.34,12.73,47.59359,-54.27349
2021-10-25 21:54:01+00:00,2.0,4.44,359.0,5.38,12.73,47.59359,-54.27349
2021-10-25 22:04:01+00:00,8.0,3.81,28.0,5.23,12.73,47.59359,-54.27349
2021-10-25 22:14:01+00:00,1.0,5.37,16.0,5.95,12.65,47.59359,-54.27349
2021-10-25 22:24:01+00:00,312.0,6.9,311.0,7.99,12.65,47.59359,-54.27349
2021-10-25 22:34:01+00:00,308.0,6.47,309.0,7.56,12.65,47.59359,-54.27349
2021-10-25 22:44:01+00:00,352.0,3.77,356.0,4.31,12.65,47.59359,-54.27349
2021-10-25 22:54:01+00:00,356.0,3.36,358.0,4.22,12.65,47.59359,-54.27349
2021-10-25 23:04:01+00:00,1.0,4.49,4.0,5.07,12.65,47.59359,-54.27349
2021-10-25 23:14:01+00:00,320.0,4.54,302.0,6.65,12.57,47.59359,-54.27349
2021-10-25 23:24:01+00:00,354.0,4.57,326.0,6.08,12.57,47.59359,-54.27349
2021-10-25 23:34:01+00:00,356.0,3.2,358.0,3.69,12.57,47.59359,-54.27349
2021-10-25 23:44:01+00:00,307.0,4.61,290.0,6.32,12.57,47.59359,-54.27349
2021-10-25 23:54:01+00:00,292.0,5.5,289.0,6.67,12.57,47.59359,-54.27349
